Theta_e
312 311 313 313 310 309 313 315 316 316 317 319 321 325 326 325 325 327 329 328 329 329 328 327 326 325 326 327 324 320 316 313 313 314 315 317 317 318 319 320 320 320 321 320 320 321 321 320 320 320 319 319 319 318 316 317 319 319 321 321 321 321 319 318 318 317 316 317 316 314 316 321 321 317 317 318 319 320 321 323 323 323 323 322 321 321 331 335
311 311 311 313 312 309 311 314 315 314 315 317 319 323 325 325 325 326 328 328 329 329 328 327 326 326 326 325 320 316 314 313 313 313 314 316 317 318 319 320 321 320 320 320 320 321 322 320 321 321 320 321 322 320 317 316 317 319 320 321 321 320 318 316 315 315 315 315 315 314 314 318 320 317 318 319 320 321 321 324 323 325 324 322 320 321 330 335
311 311 311 312 313 310 309 313 315 314 313 315 318 323 325 325 325 326 327 327 328 329 328 327 326 326 325 322 316 313 314 314 315 315 314 315 316 318 319 320 321 320 320 320 320 321 322 321 321 321 321 321 322 323 319 316 316 315 319 322 320 317 316 314 313 313 313 313 314 315 313 315 317 317 319 320 321 322 320 323 324 326 325 323 321 320 328 333
310 311 311 312 313 312 310 311 314 314 313 315 318 323 325 325 325 326 327 326 327 328 328 327 326 326 325 319 314 314 316 318 319 316 314 315 316 318 318 320 321 320 320 321 320 320 321 322 322 322 322 323 323 323 320 317 316 314 317 320 316 314 316 314 312 312 311 311 313 314 313 314 315 315 318 319 320 321 320 321 321 323 323 321 322 321 326 332
309 310 310 311 312 313 312 310 312 314 313 315 318 321 323 325 325 326 327 326 327 328 327 326 326 326 324 318 314 316 319 321 321 318 316 315 316 317 318 319 320 321 321 321 321 320 321 322 322 322 323 324 324 324 320 317 317 314 314 315 314 314 315 314 312 312 311 311 312 313 313 314 314 314 317 319 318 319 320 320 318 319 320 318 320 321 325 331
309 309 309 310 311 312 313 311 310 313 313 312 315 318 319 323 325 325 327 327 326 327 327 326 325 326 324 319 315 318 320 322 322 320 318 315 316 318 318 319 320 321 321 321 322 322 322 322 323 323 324 325 325 326 321 318 318 316 313 312 312 313 314 314 312 313 312 311 312 313 313 313 314 315 315 317 318 319 319 318 317 318 318 317 319 321 323 329
309 309 309 310 311 311 313 312 310 313 313 310 314 316 315 319 323 325 326 327 326 327 327 325 325 326 325 321 315 316 319 322 323 321 319 316 316 318 318 319 320 321 321 322 322 323 322 322 324 325 326 325 324 325 322 319 320 319 316 312 313 313 314 315 313 315 314 312 312 312 312 313 314 315 314 315 317 317 317 317 317 316 317 317 318 320 321 325
308 309 310 310 311 311 312 314 312 313 313 310 314 316 314 315 318 323 327 327 326 326 327 326 325 325 326 322 317 316 317 320 322 321 319 317 317 319 319 320 320 321 322 322 322 323 323 323 324 324 326 325 323 324 321 322 323 321 319 314 314 315 314 316 316 317 316 313 313 311 312 313 313 313 313 314 315 316 316 316 316 316 316 318 318 320 321 323
309 309 310 310 311 311 312 314 314 313 313 310 312 314 314 314 315 320 325 327 327 327 327 326 324 325 326 322 318 317 317 318 321 321 319 318 319 320 320 320 321 321 322 323 323 323 323 324 324 323 325 324 323 322 320 323 324 321 319 316 315 316 316 317 317 318 317 314 312 312 313 313 312 312 313 314 315 315 315 316 316 316 316 317 318 320 321 323
309 309 310 311 311 311 312 314 314 313 312 309 311 314 313 313 314 318 322 325 327 327 326 325 324 324 324 320 318 318 319 320 321 321 319 319 320 321 321 321 322 322 323 324 323 323 323 324 324 323 325 323 321 321 320 323 322 318 318 317 316 317 316 316 318 318 318 316 312 312 314 313 310 312 315 316 315 315 315 315 316 316 316 316 318 320 321 323
308 309 310 311 311 310 311 314 314 312 312 312 313 314 312 313 316 319 322 324 326 326 326 326 324 323 321 319 317 318 320 321 320 320 320 321 322 322 322 322 322 323 324 324 323 324 323 324 323 323 324 323 321 320 320 321 320 317 318 320 319 319 318 318 319 318 317 317 313 312 313 312 310 311 315 315 315 315 314 315 316 316 317 316 317 319 321 322
309 310 310 311 311 311 311 314 314 311 312 313 313 313 312 314 317 319 321 323 325 325 325 325 324 321 319 318 317 318 321 321 320 320 321 322 323 323 323 322 323 323 323 324 324 324 324 324 323 324 324 324 322 321 321 320 318 318 319 322 323 321 322 322 319 316 315 316 313 311 314 314 311 312 315 315 314 315 314 314 315 316 317 317 317 318 320 321
310 311 311 311 311 311 312 314 314 311 313 314 312 311 313 313 316 319 321 323 326 326 325 325 324 321 318 317 317 318 321 321 319 320 321 322 323 323 323 323 323 323 323 323 324 324 324 324 323 324 324 324 323 322 322 319 319 321 318 321 323 324 324 318 314 312 313 314 311 312 316 318 315 313 314 314 314 314 314 314 315 316 317 317 317 317 319 319
310 311 311 311 311 312 313 314 313 311 314 315 313 311 312 313 315 319 320 323 325 326 325 324 323 320 318 318 317 317 320 320 319 320 320 321 322 323 324 324 323 323 323 323 324 324 324 324 324 324 323 323 322 321 320 318 320 322 320 320 322 325 324 314 311 312 313 313 311 311 315 318 318 316 314 313 313 314 315 315 314 315 316 316 316 317 317 317
310 310 311 312 312 312 313 313 312 311 312 315 314 312 311 313 316 318 318 321 323 326 326 324 322 319 317 318 317 317 320 318 318 320 320 320 321 322 322 322 322 322 323 323 324 324 324 324 324 323 321 321 321 321 321 320 320 321 324 325 322 323 325 319 314 312 313 313 310 312 315 316 317 315 313 312 312 313 316 317 314 314 315 316 316 316 317 317
310 310 311 311 311 312 312 312 311 311 311 314 314 312 310 311 315 318 317 317 320 324 325 322 320 319 318 319 318 318 318 317 317 320 320 319 320 321 321 320 320 321 322 323 323 323 324 324 323 322 320 320 321 322 323 324 322 320 323 327 322 321 323 321 314 309 311 311 310 313 314 315 315 312 310 311 311 312 315 318 315 314 314 315 316 315 316 318
309 310 310 310 310 310 311 311 310 310 312 314 312 310 309 309 313 316 315 314 316 321 324 323 320 319 319 319 319 318 317 317 318 320 320 319 319 321 320 320 321 321 321 322 323 323 323 323 321 322 321 322 322 323 326 328 327 322 321 325 322 318 319 321 317 310 310 311 311 312 312 313 314 312 310 310 311 311 315 318 316 314 313 314 315 315 316 317
309 309 309 309 309 309 310 310 310 311 313 314 311 309 309 308 310 311 312 313 315 320 324 322 320 319 320 319 319 319 317 318 319 320 320 319 319 319 320 320 321 321 321 322 323 322 323 321 321 323 323 322 323 324 328 329 328 324 322 324 322 317 317 322 320 312 309 311 311 312 312 312 313 313 313 312 310 312 315 317 315 314 314 313 314 315 315 315
308 308 307 308 308 307 308 310 310 311 313 313 312 311 311 310 309 310 311 312 314 320 322 320 319 320 320 319 319 319 317 317 319 320 320 319 320 319 319 320 320 321 322 323 323 322 322 321 323 325 324 323 323 324 327 326 325 325 324 324 324 320 318 316 316 311 308 311 312 312 313 312 313 313 314 313 310 312 316 315 313 313 313 313 313 314 314 314
308 308 307 307 307 306 306 308 310 310 311 312 313 315 315 314 313 312 312 312 313 316 319 318 319 320 320 319 319 319 318 318 319 321 321 320 320 320 320 321 321 322 323 323 324 322 322 323 324 325 325 323 322 323 324 323 323 324 324 323 322 322 320 313 313 312 308 310 313 312 313 313 312 313 314 313 310 311 314 314 314 313 312 313 313 313 314 314
308 308 307 307 307 306 306 307 309 310 310 310 313 316 316 314 313 312 312 313 312 312 315 317 318 319 319 319 320 318 320 320 320 321 321 320 320 321 321 321 322 323 323 323 323 321 322 325 325 324 323 322 322 323 322 321 321 322 323 323 321 320 320 315 313 312 309 310 314 313 312 312 312 313 314 313 311 312 313 313 315 314 313 313 313 313 313 314
308 308 307 307 307 307 305 306 308 310 309 309 312 315 314 313 312 311 311 313 312 312 313 314 317 319 319 320 320 318 320 321 320 321 321 321 321 322 322 321 322 323 323 322 323 323 324 325 324 323 323 322 322 321 320 319 319 321 321 322 323 320 318 316 312 310 309 312 315 314 312 314 313 313 314 314 312 312 313 313 314 314 313 313 313 314 314 314
308 308 307 307 307 306 306 305 307 309 309 310 312 314 314 313 311 311 311 312 313 312 313 313 315 319 320 321 320 319 320 321 320 320 321 321 322 322 322 322 321 322 322 322 323 325 325 325 323 324 323 322 320 318 319 319 317 320 320 322 324 317 318 321 313 309 310 311 313 313 313 314 315 314 315 316 314 313 313 312 312 313 313 313 313 314 314 314
307 307 306 306 306 306 306 305 306 307 309 310 312 313 314 313 311 311 312 313 311 310 312 312 313 319 322 321 320 319 321 321 320 320 321 322 322 322 322 322 322 322 322 322 323 324 324 324 323 323 322 321 319 318 319 318 317 318 319 323 322 315 317 320 313 310 312 311 310 311 315 317 318 318 318 317 314 312 312 311 311 312 313 313 313 313 314 314
306 306 306 305 305 306 306 306 305 306 308 310 311 312 314 314 312 312 312 313 311 309 311 312 313 318 321 322 321 320 321 320 320 321 321 322 322 322 323 322 323 322 322 321 322 323 323 323 322 322 322 320 319 319 319 320 320 318 317 319 321 317 316 315 312 312 315 315 311 311 319 323 319 319 320 318 315 312 312 311 311 312 312 313 313 314 315 315
305 305 305 305 305 305 305 305 305 306 306 308 309 311 313 314 313 312 312 312 312 311 311 313 316 318 319 322 321 320 322 320 319 321 321 322 322 322 323 322 321 322 322 320 322 324 321 321 321 321 322 321 320 319 319 321 322 321 317 316 318 319 317 314 312 314 317 318 313 310 317 321 318 317 317 317 315 314 313 312 312 312 312 312 314 315 315 315
304 304 304 304 304 304 303 304 305 305 305 306 308 310 312 314 312 311 312 312 314 312 310 313 318 318 319 322 320 321 323 320 319 320 321 322 321 322 322 321 321 322 321 321 324 324 319 319 322 321 322 322 321 321 320 320 323 323 319 315 316 317 317 316 314 315 316 315 313 311 313 315 316 316 315 314 314 314 314 313 312 312 312 312 315 316 316 316
303 303 303 303 303 303 303 303 304 304 305 306 307 308 311 314 312 310 312 314 314 312 311 313 316 317 319 321 320 321 321 320 320 321 320 321 321 321 321 320 321 322 321 322 325 321 318 320 321 321 322 322 322 322 319 320 322 319 316 316 317 316 316 316 314 314 313 313 316 315 312 314 317 315 313 313 314 316 316 314 314 313 313 313 315 317 317 317
302 302 302 302 302 302 303 304 304 304 304 305 307 308 310 312 311 311 314 316 313 311 312 313 314 317 319 320 320 319 319 320 320 320 319 319 319 319 320 321 321 321 320 320 322 319 317 319 321 321 322 322 322 320 318 321 319 313 312 315 315 314 314 313 314 313 311 314 319 317 313 316 320 318 314 312 313 316 317 316 316 315 314 314 315 317 317 317
302 301 301 301 301 302 303 304 305 305 304 304 307 308 309 311 310 312 315 316 314 312 312 314 315 318 320 321 320 319 319 319 318 318 316 316 317 318 319 320 321 320 318 317 317 315 314 316 319 320 320 319 319 318 318 318 314 310 311 313 312 313 313 313 313 312 314 318 318 314 313 315 318 319 317 315 314 315 316 316 316 315 314 315 316 317 317 317
302 302 302 302 301 302 304 304 305 308 306 305 306 307 310 310 310 315 316 313 314 312 312 314 315 319 321 320 320 320 319 318 317 317 315 315 317 318 319 320 319 318 318 317 315 313 314 316 318 316 315 316 315 315 314 312 310 311 313 312 313 314 314 313 312 312 319 322 313 309 311 313 317 319 316 316 314 313 315 316 316 316 315 316 317 317 317 317
302 302 302 302 302 302 303 304 305 307 308 308 307 307 310 311 311 315 314 312 315 313 311 313 314 318 321 319 319 320 319 318 317 317 316 317 318 319 321 320 319 319 320 319 316 315 316 316 314 313 313 315 317 315 312 310 312 314 313 314 317 316 316 317 316 315 320 319 309 307 310 312 316 318 316 316 313 312 314 314 316 316 316 317 317 317 317 317
301 302 302 302 303 302 302 303 303 304 307 309 310 309 309 310 312 314 313 312 315 313 311 313 313 317 320 319 319 320 319 319 318 316 316 318 319 320 321 319 319 323 324 321 318 316 317 315 312 313 313 315 317 317 313 310 313 315 313 316 319 318 318 321 319 317 319 317 309 307 310 313 316 316 315 315 314 314 313 313 313 314 315 316 316 316 317 316
298 300 302 303 303 303 302 302 303 303 305 308 310 310 309 311 313 315 313 311 312 311 312 313 314 317 319 318 318 319 319 319 318 317 317 318 320 321 320 318 318 321 322 320 318 318 320 319 315 314 314 315 317 317 314 311 312 314 314 317 319 319 321 324 322 321 320 315 309 309 313 318 318 315 312 311 311 313 312 312 311 311 312 314 315 314 315 315
296 297 299 302 303 303 302 302 304 304 304 307 309 309 310 312 313 314 313 311 311 311 312 313 314 316 317 316 318 319 319 319 319 318 317 318 320 321 319 318 318 317 319 320 319 318 321 319 314 313 314 315 316 316 313 312 313 314 314 316 318 318 318 318 317 316 316 314 311 310 314 317 315 313 312 311 310 310 311 311 311 311 313 313 313 314 315 315
296 296 297 299 301 303 303 302 304 304 304 306 307 307 308 310 311 312 313 311 311 312 313 314 314 316 316 315 317 318 317 318 319 319 318 318 319 320 319 318 318 316 318 320 319 319 321 316 312 312 313 314 316 315 313 315 316 313 313 315 315 314 313 315 314 310 311 317 317 313 313 315 314 316 315 314 314 311 310 310 310 311 313 312 312 314 315 316
296 296 297 298 299 302 303 303 303 305 305 306 305 305 307 308 308 310 312 312 312 312 314 316 314 314 317 316 315 317 316 317 319 319 319 319 319 319 318 318 318 316 317 318 317 317 318 314 310 311 313 313 313 314 313 314 315 313 314 315 313 313 313 314 316 313 312 318 318 313 314 316 316 318 316 313 315 314 312 311 310 310 311 312 313 314 315 314
297 297 297 298 298 301 304 303 303 304 306 306 304 305 307 307 307 309 311 312 312 312 315 316 314 313 316 317 315 315 317 318 319 320 320 320 320 319 318 318 318 316 316 317 317 316 316 315 310 309 312 311 310 313 315 312 311 312 314 315 315 318 317 315 317 317 317 319 319 314 312 313 315 317 315 313 314 314 314 314 312 311 310 311 312 314 314 313
298 299 299 298 298 301 304 304 303 304 305 305 304 305 308 308 307 309 310 311 312 313 315 315 313 312 314 316 315 315 317 319 318 320 320 319 320 318 318 318 317 316 315 314 316 316 314 316 313 309 309 311 310 314 316 314 311 310 312 314 314 316 318 316 316 317 319 320 320 317 313 314 315 315 314 315 314 313 314 314 314 313 312 310 311 311 312 311
299 300 300 300 299 301 304 304 304 304 305 305 305 306 308 308 308 308 309 311 312 313 315 315 314 313 313 314 314 315 318 318 318 320 321 319 318 318 318 317 316 316 314 312 314 315 312 314 314 310 309 311 313 314 317 316 313 310 313 315 313 313 313 315 315 314 316 319 319 318 318 317 313 311 313 315 314 314 315 314 315 314 311 310 310 310 310 310
299 300 301 301 300 302 304 304 304 304 305 305 305 306 308 308 308 308 308 310 311 312 313 314 315 315 313 314 314 315 318 318 318 321 321 319 317 317 318 316 315 315 313 313 315 315 312 313 313 311 310 312 314 312 313 315 314 313 314 315 315 314 313 317 319 314 312 315 315 314 318 318 312 310 311 312 313 314 312 312 313 311 309 310 311 310 310 311
300 300 301 301 301 303 304 304 304 305 305 305 305 306 308 309 309 309 308 309 310 309 309 312 314 314 314 315 315 315 318 318 318 320 320 319 316 315 316 316 315 314 314 314 314 312 311 313 312 312 312 312 311 308 307 310 312 313 314 314 315 315 314 318 321 316 312 313 311 311 314 317 314 313 312 311 311 311 308 308 309 310 310 311 311 311 311 311
300 300 301 301 302 303 304 304 304 305 305 305 305 305 307 308 309 309 309 310 310 308 307 310 313 313 315 316 315 315 317 317 318 318 317 318 315 312 314 316 314 314 313 313 313 311 311 313 312 312 312 310 309 307 306 308 311 313 313 313 314 315 316 315 314 313 314 314 313 313 316 316 314 314 312 308 307 307 306 307 308 309 311 311 310 310 310 311
300 300 301 302 302 303 304 304 304 304 304 305 305 306 307 308 309 309 309 310 310 308 308 310 313 313 315 316 315 316 317 317 317 315 314 316 312 310 313 315 314 313 314 314 314 313 313 314 313 313 313 313 312 311 310 309 310 312 312 312 312 314 315 312 310 311 314 315 315 316 319 318 313 313 311 308 307 307 306 307 307 309 310 309 309 309 310 311
300 300 301 302 303 303 303 304 304 304 304 305 305 306 307 308 308 309 310 310 309 309 309 310 313 313 314 316 316 316 316 317 316 314 313 313 309 309 313 315 314 314 313 314 314 314 314 314 313 314 316 317 316 315 314 312 311 312 313 312 311 313 314 313 312 313 314 316 315 316 319 318 312 311 312 311 311 310 308 308 308 308 309 309 310 310 310 311
300 301 302 302 303 303 304 304 304 304 304 305 305 306 307 308 308 308 309 310 310 309 310 310 312 313 314 315 316 315 315 316 315 314 313 311 308 308 312 314 314 314 313 313 313 313 313 313 314 315 316 317 317 316 315 314 312 312 313 312 312 312 313 314 314 315 316 316 315 315 317 318 314 311 312 312 313 312 310 308 308 308 309 309 310 310 310 311
300 301 302 303 303 303 304 305 304 304 304 305 305 305 306 307 308 308 309 310 310 310 310 310 311 312 314 314 314 315 314 314 313 313 312 310 309 309 311 313 314 313 313 312 312 313 314 313 314 316 315 316 316 314 313 314 314 314 313 313 313 312 313 314 315 316 316 316 317 316 315 316 316 313 312 313 314 312 309 307 308 309 310 310 310 311 311 311
300 301 302 303 304 304 304 304 304 304 304 305 305 306 306 307 308 309 309 309 310 309 309 311 311 312 313 314 315 315 314 313 313 311 310 309 309 310 311 313 312 312 313 313 312 314 315 315 315 316 314 313 314 312 312 314 313 314 314 314 313 313 313 313 314 315 316 316 318 318 316 316 316 314 313 313 313 311 309 308 308 309 310 311 311 311 311 312
299 300 301 302 304 305 305 305 305 304 304 305 305 306 307 307 308 309 309 309 309 308 308 310 311 311 312 315 317 315 313 314 314 311 310 309 310 311 311 312 311 311 312 313 312 313 315 315 315 314 312 311 312 312 313 313 313 313 314 313 313 313 312 312 313 314 315 316 316 316 317 316 315 315 314 313 314 312 309 308 308 309 311 311 311 311 312 312
299 300 301 302 303 305 306 306 305 305 304 305 305 306 306 307 307 309 309 309 310 308 308 310 311 311 312 315 316 315 314 315 315 313 311 311 311 311 312 313 312 311 312 313 312 311 313 314 313 313 311 310 310 312 313 313 313 313 313 313 313 313 313 313 313 313 314 315 315 315 316 316 315 315 313 312 313 312 310 308 309 309 311 311 310 311 311 312
298 299 300 301 302 303 304 305 305 305 304 305 305 305 306 307 307 309 309 309 310 309 309 309 310 312 313 314 316 315 314 315 315 313 311 312 312 311 312 312 312 312 313 313 313 312 312 311 311 313 312 310 309 311 312 312 312 313 313 313 313 313 314 314 314 313 314 314 315 315 315 315 314 314 312 311 310 311 310 310 311 311 311 311 311 311 312 312
298 298 299 299 301 303 304 304 305 305 305 305 305 305 307 307 307 308 310 309 309 310 310 310 310 312 313 314 315 316 315 314 313 312 311 311 310 309 309 311 311 312 313 313 312 312 311 310 311 313 313 310 308 310 311 312 313 314 314 314 313 313 313 313 314 314 313 314 315 315 315 315 314 312 312 311 310 311 312 311 312 313 313 312 312 312 312 312
Wind_Speed
40 39 37 37 38 39 40 38 38 40 41 36 33 38 42 41 41 42 41 39 37 35 34 33 31 29 30 29 27 26 26 27 27 28 29 30 30 26 25 25 24 26 27 25 19 14 18 22 24 24 18 9 4 6 6 6 5 2 2 4 3 2 2 2 3 4 5 5 6 1 7 8 4 7 8 5 7 6 6 10 9 11 12 8 6 5 15 23
42 40 39 38 38 39 40 38 38 40 43 40 34 37 42 41 40 41 41 41 38 36 35 33 32 31 31 31 28 27 26 26 28 31 32 30 29 26 25 26 25 27 28 28 23 15 16 22 26 28 21 8 2 5 4 6 6 3 0 4 2 2 3 4 5 6 5 6 8 5 7 9 4 5 9 6 6 7 6 9 10 11 13 13 9 8 17 24
43 41 40 39 39 39 40 39 38 40 42 43 38 36 41 42 41 41 42 43 41 39 37 34 33 33 33 32 30 28 26 26 27 32 34 31 29 27 27 28 27 28 29 29 26 18 13 18 24 28 23 11 3 2 4 5 5 3 1 4 2 3 2 4 5 6 6 7 8 6 5 9 7 4 8 7 4 7 10 10 10 12 15 17 13 11 19 26
44 42 41 40 40 39 39 40 39 40 41 42 39 34 38 42 42 43 43 43 42 39 38 36 35 35 35 34 31 28 25 21 26 34 34 32 32 29 28 29 27 28 30 28 26 21 14 15 22 28 24 12 6 1 3 4 4 2 1 1 4 1 1 4 6 6 8 8 7 6 4 6 7 8 9 6 5 7 12 14 13 15 17 19 18 15 20 26
45 43 41 40 41 39 39 41 40 40 42 43 41 33 32 40 45 43 42 43 42 40 39 38 37 37 37 36 32 29 24 12 18 33 33 32 33 32 30 29 28 28 29 27 24 24 19 18 23 25 20 10 6 3 2 4 4 3 2 3 5 2 1 4 7 9 11 8 6 5 4 5 5 9 11 10 9 6 6 11 12 13 16 17 18 17 20 26
45 43 41 40 41 40 38 40 41 41 43 45 45 38 29 35 45 43 40 41 43 43 41 39 39 39 39 38 35 31 26 7 5 25 33 33 34 33 31 29 30 29 27 25 22 23 22 22 22 18 14 9 6 4 4 6 3 3 2 3 4 3 3 6 8 11 12 7 5 5 5 7 5 7 10 15 17 11 7 7 7 9 14 15 17 18 21 25
44 42 41 41 42 41 38 39 41 41 43 46 48 43 33 31 38 41 40 41 44 44 42 41 39 41 41 40 37 32 29 12 1 17 33 34 34 34 32 29 31 30 29 26 22 23 25 25 22 16 12 7 5 5 6 6 3 3 3 3 1 2 3 8 11 12 13 8 7 7 8 8 7 6 7 15 21 19 16 10 4 6 10 14 17 19 21 23
42 41 40 40 41 42 40 38 40 41 43 47 49 45 38 31 30 36 42 43 45 45 43 44 41 42 44 41 39 30 29 23 3 13 34 35 34 33 32 30 29 31 29 26 24 25 24 24 22 18 12 6 7 8 7 6 2 3 3 2 2 4 5 9 12 12 13 12 10 8 9 9 9 8 9 17 21 20 21 16 9 6 7 13 17 19 21 22
41 40 39 39 40 41 40 37 38 41 42 46 48 47 43 35 29 32 40 42 45 47 45 45 43 44 45 43 40 25 31 35 10 12 34 35 34 32 31 31 29 31 28 24 25 24 22 22 22 20 12 7 9 8 8 7 2 3 2 1 3 7 8 10 12 10 13 14 10 7 8 8 8 9 11 17 18 18 20 19 16 10 8 11 15 19 21 22
40 39 38 37 38 39 38 36 38 41 43 44 44 45 44 38 32 32 38 40 42 47 47 47 46 46 46 44 35 18 32 44 17 15 35 35 33 32 32 33 31 32 29 25 26 26 25 22 22 22 13 9 10 7 8 7 2 3 1 4 7 9 9 10 11 11 13 13 9 7 8 5 3 5 6 6 7 11 16 19 19 16 12 11 14 18 21 22
38 38 37 36 36 37 37 35 38 43 44 45 42 41 42 38 33 32 38 41 41 45 47 48 48 48 47 44 32 17 29 45 25 20 36 35 34 34 34 34 33 33 31 27 25 25 25 21 22 21 10 9 11 7 7 6 4 5 2 6 8 9 9 10 11 10 8 9 7 7 7 3 3 4 7 7 7 7 12 18 19 19 16 14 14 17 20 23
38 37 36 36 35 35 35 32 37 43 43 44 42 40 40 37 35 33 35 39 40 46 49 49 48 48 47 40 33 23 28 43 31 23 36 36 33 33 33 33 31 33 32 29 24 23 23 19 23 20 8 11 11 6 6 7 7 5 2 4 7 9 12 11 8 7 4 5 4 3 7 7 8 9 10 10 10 7 10 16 18 20 19 17 16 17 20 22
38 36 34 34 34 33 33 30 33 41 43 44 42 43 42 39 37 32 31 33 39 49 52 51 49 49 46 34 31 27 27 42 35 25 37 38 33 32 32 33 29 27 28 29 25 22 21 19 23 20 13 12 8 5 7 8 7 5 4 1 5 8 10 4 1 3 3 3 2 2 7 8 8 12 13 10 10 9 10 14 17 19 20 19 18 19 20 22
36 35 33 33 32 32 31 30 34 40 46 45 42 44 44 43 40 32 29 29 37 53 55 52 52 49 43 30 30 29 25 39 36 27 39 40 35 35 32 32 28 24 23 25 25 21 19 20 23 19 15 13 11 10 8 6 4 4 3 1 3 5 4 1 2 2 3 3 5 5 7 9 4 6 11 12 12 11 11 13 16 18 19 20 19 20 21 21
35 33 32 31 30 29 29 32 35 39 44 43 39 42 44 44 43 35 29 24 30 52 58 53 54 48 33 21 29 33 27 37 37 29 39 43 39 37 34 31 26 23 22 21 23 21 21 22 20 15 12 14 16 11 5 3 2 3 3 4 4 5 2 3 3 2 4 2 8 8 6 7 6 3 6 12 14 13 12 12 15 17 18 20 20 20 21 22
32 30 29 28 27 26 28 31 35 37 39 37 35 39 42 43 44 39 34 25 20 42 59 52 53 48 24 12 27 37 33 38 38 31 38 44 43 40 37 31 25 24 21 19 21 22 23 21 16 14 13 13 12 7 4 3 2 2 4 5 4 5 2 3 2 3 3 1 7 10 6 4 3 1 1 7 14 16 13 11 15 18 18 20 21 21 22 23
29 27 26 25 25 25 25 28 32 37 36 33 34 37 40 43 48 45 41 35 23 34 58 53 56 49 19 13 28 38 38 39 39 34 38 43 43 42 39 33 28 26 24 21 22 23 21 17 14 11 8 7 7 7 6 6 6 3 2 5 4 4 2 2 1 4 3 1 4 9 9 8 7 4 2 2 8 13 14 12 15 19 20 20 22 23 23 24
29 26 25 24 24 23 24 26 30 37 37 34 35 38 39 40 47 47 43 41 29 31 52 49 52 33 10 23 37 44 46 42 40 37 40 41 39 41 40 36 32 29 26 22 20 20 16 11 10 6 4 7 9 9 7 6 8 6 5 6 4 3 1 2 3 3 5 3 5 8 10 12 13 14 13 7 7 10 12 13 16 19 21 20 22 23 24 25
30 26 25 23 23 21 22 25 29 36 39 36 32 34 36 35 39 40 41 39 27 18 18 27 46 20 8 36 44 47 51 46 42 38 40 41 36 39 38 35 34 31 25 16 12 15 12 7 5 6 8 10 11 11 8 7 10 10 9 7 4 4 3 2 4 3 5 5 7 9 11 12 13 17 17 10 10 11 10 12 15 18 20 21 23 23 25 26
28 26 24 22 21 20 21 24 29 34 39 39 32 28 28 27 22 22 30 34 33 25 12 13 49 22 11 41 43 44 48 43 44 40 40 41 38 38 34 32 30 23 17 11 10 13 13 8 6 9 11 12 13 11 8 6 7 9 8 7 4 4 4 2 4 3 1 5 7 7 10 13 13 16 16 9 8 11 11 13 15 17 19 21 23 25 26 26
26 25 24 22 20 20 19 22 27 32 38 40 33 26 24 26 18 15 26 27 36 44 28 18 33 11 8 41 47 51 49 38 42 44 40 40 39 33 30 30 22 12 11 12 12 11 10 10 11 12 12 13 13 10 8 5 5 6 6 6 5 4 4 4 4 3 2 4 7 7 10 13 12 14 17 10 7 12 14 15 16 18 20 21 21 24 26 26
23 23 24 23 21 20 19 20 25 31 35 36 31 23 21 31 31 26 28 18 22 38 33 25 22 10 15 41 47 53 48 32 34 41 41 41 38 28 26 25 14 10 12 11 10 9 9 12 14 15 15 13 10 9 8 6 5 6 6 4 4 4 3 4 5 3 3 4 6 8 10 14 13 13 17 14 11 15 18 18 19 19 20 23 22 22 23 24
22 23 24 23 21 20 19 19 22 28 33 33 30 22 16 28 33 22 20 12 9 21 27 24 19 14 26 36 45 53 41 25 28 39 44 43 37 31 28 21 11 13 15 11 10 9 8 10 14 17 17 14 9 9 9 6 4 4 6 6 5 5 4 5 4 4 3 3 5 8 9 12 13 12 16 18 17 18 19 21 24 23 22 25 26 23 22 22
22 22 22 22 21 20 19 18 18 25 32 30 28 21 14 23 30 20 14 7 3 9 20 23 20 20 33 37 49 55 42 33 35 42 47 45 38 31 28 22 16 14 14 17 16 9 5 7 16 18 15 15 12 12 11 6 3 4 6 8 5 6 8 6 1 1 4 3 2 5 8 10 12 13 14 13 12 14 17 18 21 25 27 27 27 26 25 25
20 20 19 20 20 19 18 18 16 21 29 29 28 23 14 21 28 27 16 4 3 5 11 20 22 26 34 38 47 48 40 34 38 50 52 47 42 28 21 21 16 14 18 22 18 9 6 12 19 17 13 16 13 12 13 9 6 5 5 8 8 9 10 6 1 2 5 5 3 2 7 8 7 11 13 9 7 9 11 14 18 24 27 29 29 29 29 29
20 18 18 18 18 19 18 16 15 18 24 26 28 23 13 17 24 30 17 4 4 3 4 12 17 28 34 33 44 42 28 17 26 50 52 44 45 32 20 13 6 14 22 18 11 4 4 11 16 16 14 15 10 8 13 12 8 6 6 8 9 10 10 8 4 2 5 4 0 1 6 6 4 7 9 7 8 9 9 11 15 19 23 28 30 30 30 29
20 18 18 17 17 18 16 14 15 17 18 21 26 22 14 15 21 26 14 1 5 4 7 9 10 26 32 33 47 32 14 16 21 39 44 36 40 33 19 11 5 12 16 11 7 3 7 13 12 15 15 12 10 8 11 14 9 5 8 12 11 10 11 10 6 4 3 4 4 3 3 6 8 6 4 4 8 11 10 10 12 15 21 28 30 29 29 28
17 17 17 17 17 16 14 14 15 16 16 17 23 23 16 15 23 23 9 2 5 5 6 9 8 22 31 39 47 23 19 33 21 27 43 34 32 25 14 14 14 15 15 12 8 4 10 16 14 15 13 10 12 10 12 16 9 1 7 12 11 9 8 6 4 3 1 3 7 5 4 5 9 5 2 3 10 15 15 12 11 13 20 28 30 30 29 28
16 15 15 16 16 16 15 14 13 15 17 15 16 21 19 18 22 16 3 3 4 4 5 12 12 18 26 33 32 19 26 28 11 23 40 29 25 17 7 17 21 18 12 5 4 5 6 13 18 16 11 11 12 10 15 16 6 4 8 8 6 5 3 2 2 2 1 4 8 6 8 6 10 7 4 4 9 14 14 10 9 13 20 26 28 28 27 28
14 13 14 15 16 17 15 14 13 11 16 16 13 18 21 19 15 6 4 3 3 3 6 12 12 14 21 20 14 18 22 13 15 28 22 12 18 13 10 19 20 14 6 6 6 5 4 8 14 9 5 7 10 11 12 13 9 12 10 9 8 4 2 2 1 1 2 6 5 5 9 6 8 8 7 7 6 9 11 10 9 12 18 24 25 24 24 25
11 11 12 13 14 16 15 14 16 13 15 18 15 18 20 12 5 3 5 3 2 4 6 8 8 10 19 17 9 17 16 9 21 27 11 7 12 10 13 13 8 6 5 6 6 3 6 8 7 3 6 12 14 9 5 9 14 12 8 8 8 4 2 2 1 2 6 6 1 3 8 9 10 6 5 7 5 6 10 12 13 13 18 26 27 25 25 25
9 10 10 11 11 14 13 13 18 17 17 21 23 22 15 5 4 4 3 2 2 5 5 6 7 8 19 19 12 17 15 9 16 18 13 11 9 11 14 10 7 6 5 8 6 4 6 5 3 4 8 13 14 8 4 5 8 5 7 9 6 4 3 4 3 3 7 4 1 2 4 8 12 8 9 10 6 6 10 12 15 14 18 26 26 25 27 28
9 9 9 10 10 12 12 12 18 19 14 22 28 20 8 4 5 4 3 1 2 3 3 7 9 9 18 18 10 15 14 12 17 15 14 15 12 13 10 9 14 8 5 11 8 7 5 1 3 6 6 11 14 10 7 5 5 5 8 8 5 5 5 6 5 3 5 3 2 1 2 6 10 5 10 13 9 13 15 16 20 18 20 25 23 23 25 28
8 8 9 10 9 10 13 12 16 19 17 20 20 12 6 7 4 4 6 2 2 3 3 6 10 10 16 15 11 14 10 9 17 15 12 14 12 11 7 8 14 5 7 10 4 7 7 1 8 9 5 11 12 9 10 8 6 6 5 4 4 6 5 5 5 5 3 2 2 3 2 6 4 2 4 8 8 13 16 18 21 22 23 24 24 25 25 26
4 5 8 10 11 11 13 15 14 16 21 19 9 4 7 7 3 3 6 3 3 4 3 6 11 9 10 9 10 15 5 5 18 16 10 12 10 12 11 12 16 10 10 10 4 7 7 2 7 7 6 14 13 10 15 13 7 4 1 1 3 3 2 1 1 2 1 1 3 5 4 5 2 6 9 7 5 8 14 18 20 24 28 27 27 28 27 26
0 2 5 7 12 13 14 18 16 15 23 17 4 3 5 3 1 1 4 5 5 8 9 8 8 6 6 3 7 11 0 2 20 16 8 12 11 12 12 10 15 15 12 10 5 6 7 3 4 5 6 13 12 13 18 15 8 4 3 4 2 1 2 1 1 2 1 5 4 5 6 6 4 9 11 11 9 5 7 12 16 24 30 27 28 30 29 28
2 2 5 6 10 14 16 20 19 18 21 13 3 5 3 2 2 0 0 3 6 9 11 9 5 3 6 3 4 9 5 5 15 12 8 12 11 13 13 9 14 17 14 11 4 3 7 6 2 2 7 8 5 11 14 7 5 6 6 7 4 2 2 2 3 1 3 7 4 4 8 6 4 6 3 7 12 9 7 8 10 17 22 23 30 36 35 32
2 3 6 7 10 15 19 21 22 21 16 7 6 8 3 2 4 2 3 1 6 7 5 6 4 1 6 6 3 9 12 10 10 9 9 8 6 14 17 11 14 17 14 11 6 5 8 8 2 1 5 5 3 8 9 3 1 2 4 9 6 2 4 4 3 3 4 7 5 4 6 6 8 7 2 4 8 9 10 8 6 9 13 17 26 34 33 31
2 2 3 4 12 19 21 22 25 22 12 5 7 7 3 3 5 5 4 3 5 7 5 5 2 2 5 6 5 10 14 14 12 10 11 8 6 16 20 12 13 18 12 5 5 7 6 6 4 2 2 5 4 6 8 6 2 1 3 8 3 2 3 4 3 1 3 6 6 3 2 5 7 8 9 9 8 8 10 8 6 10 14 14 18 23 23 23
2 1 2 1 11 21 24 25 25 18 8 5 7 5 4 4 6 10 11 6 2 5 6 5 2 4 4 3 5 9 11 14 16 12 11 9 7 13 19 12 13 18 10 4 5 7 3 3 6 3 1 6 7 6 9 12 9 5 7 8 4 2 1 1 3 2 2 5 5 4 5 5 2 4 10 14 13 13 11 8 6 8 10 10 11 12 13 12
3 2 1 2 10 24 29 23 16 11 5 6 6 5 3 3 5 11 14 12 5 2 2 3 3 4 5 5 6 8 8 10 14 10 8 10 6 6 16 17 17 18 12 7 8 6 1 3 9 8 6 7 5 1 2 8 10 9 8 9 10 8 5 4 6 5 3 4 3 3 7 6 3 3 6 10 10 9 7 4 4 6 7 8 7 8 10 12
5 2 2 6 15 28 30 15 7 8 5 7 10 9 6 4 5 9 13 14 9 2 4 3 4 3 5 7 8 10 9 9 14 11 7 12 9 3 13 23 24 20 13 8 7 3 3 6 8 8 7 4 1 3 3 1 6 7 6 8 10 8 8 8 6 4 4 4 1 1 6 5 4 4 5 7 6 5 7 7 8 11 13 13 14 13 13 16
5 3 5 9 17 30 26 8 6 8 4 7 11 11 9 5 4 8 10 10 8 3 1 4 5 6 6 6 8 12 11 9 12 9 5 10 7 2 15 29 28 20 12 8 8 5 4 6 7 8 5 2 3 2 3 3 2 7 8 8 9 10 10 4 1 1 4 5 4 2 7 6 4 5 5 5 4 6 10 11 13 16 17 16 15 13 11 13
6 7 10 14 22 29 19 6 8 10 8 9 9 9 10 6 5 8 8 8 8 5 2 5 6 7 5 5 9 13 12 7 6 3 2 5 4 5 21 33 30 19 8 7 11 8 5 5 7 10 7 4 3 3 4 4 6 9 8 6 7 9 6 2 1 2 2 7 9 6 10 9 2 4 3 2 3 6 8 10 12 15 14 12 9 8 9 10
6 7 11 21 32 33 20 11 11 10 12 13 10 11 11 5 7 12 11 10 11 8 4 4 5 4 4 6 9 11 8 3 4 4 2 4 2 4 23 35 31 18 5 7 15 10 5 6 7 10 10 10 10 7 6 7 6 4 5 8 11 11 11 7 3 4 6 9 11 9 11 7 4 3 2 3 5 6 5 6 8 9 8 7 6 7 7 8
5 5 6 15 29 31 22 17 13 9 11 14 10 11 13 6 6 14 15 11 11 10 6 5 4 2 5 9 10 10 5 3 2 6 5 8 3 2 20 34 29 18 10 15 21 11 3 4 6 10 11 10 9 6 8 12 10 9 13 17 16 15 16 11 4 8 11 7 8 12 14 8 2 5 3 3 4 4 2 3 4 3 2 3 4 6 7 7
5 5 5 8 13 15 14 14 14 10 10 14 9 8 15 13 6 10 14 11 11 11 6 6 8 5 7 13 12 9 6 3 6 8 4 7 5 2 18 28 24 21 18 19 21 10 3 5 10 12 9 3 3 6 11 16 17 18 20 20 17 16 16 12 11 16 11 4 8 14 14 15 12 7 6 4 5 2 1 3 4 2 2 3 5 7 7 8
7 4 8 11 6 5 9 14 16 15 15 15 9 9 17 18 11 10 10 7 9 11 4 5 13 13 12 16 12 9 9 6 7 9 5 5 7 7 13 13 12 21 20 14 16 9 3 7 11 10 5 5 5 8 12 13 11 11 15 18 17 18 18 17 20 22 13 8 13 11 9 16 19 11 10 10 7 4 5 7 5 4 7 9 11 13 12 10
10 6 9 14 9 5 12 20 21 21 21 17 11 10 15 17 15 13 10 7 6 9 8 6 12 17 16 15 11 10 13 10 10 11 9 12 13 11 12 6 6 18 18 11 10 6 3 6 8 10 6 6 4 8 12 12 8 7 13 16 18 21 23 23 24 23 16 15 20 13 7 17 19 12 11 12 15 15 10 9 11 13 15 16 16 18 18 16
15 10 7 10 10 8 10 15 17 18 19 18 13 12 14 16 17 12 10 12 8 7 12 12 13 17 18 15 12 13 18 19 19 19 18 18 16 13 12 10 10 16 16 11 8 4 2 5 9 10 7 4 2 6 10 12 11 10 13 16 19 23 24 23 21 15 11 16 25 19 14 18 15 8 8 12 18 18 13 13 19 22 21 19 18 21 21 18
22 20 13 7 6 9 9 9 12 15 15 15 14 12 12 16 20 13 9 16 19 15 16 16 13 14 16 18 19 19 18 15 14 19 22 20 17 10 6 8 14 17 14 10 8 4 1 3 7 9 7 2 2 6 9 8 6 6 11 18 24 23 20 19 18 16 16 20 23 18 15 16 8 6 9 10 11 11 12 17 24 29 29 24 21 25 26 22
23 25 24 15 8 9 10 8 12 15 13 14 16 16 14 17 21 18 10 14 24 24 19 15 10 9 13 20 23 22 17 11 13 20 22 17 13 9 8 12 18 17 13 9 6 4 4 5 6 8 7 3 2 6 9 7 4 6 12 18 22 20 17 16 17 20 22 20 15 12 15 13 2 7 8 9 9 11 13 17 23 31 35 32 28 28 29 27
Wind_Direction
229 230 230 226 224 228 228 227 226 224 222 222 226 224 219 218 217 217 214 212 211 207 206 205 201 197 196 194 190 190 191 198 204 207 208 206 201 200 201 194 192 193 188 189 184 175 179 183 193 184 165 159 125 94 83 74 84 120 192 211 214 194 126 22 10 359 326 358 18 247 215 221 203 187 200 208 203 209 201 201 215 210 212 205 188 190 181 183
226 227 228 226 222 225 228 227 223 224 225 223 228 227 220 218 218 216 212 211 210 207 206 204 200 194 193 192 190 191 195 202 208 212 211 205 200 199 199 194 192 192 189 192 189 178 181 181 185 183 172 168 69 75 92 69 67 74 153 213 197 70 61 31 13 12 344 332 342 319 230 234 243 185 198 216 200 195 207 205 212 215 214 208 199 190 183 187
225 224 225 225 223 223 226 226 221 221 224 223 227 227 219 216 215 214 213 211 210 206 204 204 200 193 191 190 190 193 197 203 210 214 211 204 200 197 197 197 193 192 191 194 193 188 186 181 185 186 181 189 211 83 78 69 62 61 276 212 119 42 65 56 22 20 6 329 325 322 252 236 243 206 200 224 207 198 222 213 202 212 215 209 200 191 188 190
223 223 223 223 222 221 222 225 222 219 220 220 222 224 219 215 213 213 212 211 212 207 203 203 200 192 189 188 189 193 192 201 216 215 209 204 201 195 196 197 193 195 197 195 196 200 195 178 181 186 183 185 204 205 60 71 66 77 358 134 97 31 189 59 14 3 358 339 321 311 284 250 238 220 209 218 221 221 232 226 221 223 221 212 202 194 190 191
222 222 223 223 221 219 219 222 223 219 215 215 218 222 221 215 213 213 212 212 214 209 203 203 200 192 188 187 187 187 183 194 226 215 206 203 201 197 195 196 194 196 197 194 196 204 204 183 172 173 171 165 183 202 108 95 81 101 78 81 96 52 20 24 355 350 349 340 316 294 286 288 255 224 216 217 232 247 241 238 243 237 234 225 209 199 191 192
220 220 222 222 220 218 217 218 221 220 217 217 218 222 226 218 212 210 209 211 214 211 205 202 201 193 187 187 186 183 184 182 240 211 204 200 200 198 196 196 197 196 193 191 194 199 199 187 176 166 156 151 175 186 153 139 119 126 129 125 106 42 7 354 350 351 348 336 299 291 290 286 264 245 231 226 238 254 265 261 262 241 239 234 216 206 196 195
217 218 219 220 219 218 216 217 218 219 218 217 216 221 228 224 215 208 207 212 215 213 208 203 200 194 188 188 188 189 198 207 14 200 199 198 199 199 197 196 198 197 193 191 193 193 190 186 185 175 159 155 168 169 163 157 146 167 166 165 164 351 336 344 352 355 350 333 301 290 283 272 254 265 251 237 244 248 254 258 258 239 231 223 215 212 206 203
213 215 216 217 218 216 215 217 215 215 217 216 215 219 224 226 224 212 208 211 211 213 212 204 200 194 189 189 191 195 207 209 209 188 191 196 198 197 197 195 197 197 192 194 197 194 188 185 187 183 175 173 168 162 166 171 205 210 174 152 243 306 312 327 336 345 344 328 314 292 267 261 255 263 263 257 257 252 250 246 241 245 223 215 215 213 209 207
211 213 213 213 215 213 215 215 212 212 215 216 216 219 221 225 229 220 215 210 206 212 214 206 200 194 190 189 188 197 210 201 189 179 186 193 195 193 194 192 194 192 187 192 197 198 195 187 185 190 192 170 160 156 169 187 230 221 214 308 292 303 304 308 312 326 334 322 312 282 262 266 262 263 265 263 262 258 250 241 237 241 231 217 214 214 212 210
210 210 209 211 211 210 212 213 211 209 210 212 213 216 220 225 227 224 219 211 207 210 211 208 201 193 191 189 186 201 209 197 187 180 185 191 191 187 188 188 189 188 184 188 195 200 201 198 191 192 196 166 154 150 169 194 177 135 294 311 298 299 300 299 299 306 317 314 295 263 273 287 252 246 256 272 277 259 244 236 235 235 236 226 217 217 214 214
208 207 205 207 208 207 208 212 210 207 207 206 205 210 215 220 222 221 217 213 212 209 208 208 200 193 189 187 189 201 201 194 189 184 183 187 188 183 184 187 188 186 181 180 186 193 198 206 196 188 192 169 158 144 157 180 148 113 20 296 285 288 290 284 286 298 307 306 283 252 274 273 168 218 240 264 291 270 236 232 233 230 232 231 224 220 217 217
202 202 201 202 204 204 206 210 209 206 204 200 202 208 208 212 217 219 216 214 216 211 208 206 199 193 187 188 198 196 193 192 189 186 183 184 186 181 182 185 187 189 186 181 181 188 193 201 193 185 175 162 155 139 169 167 136 104 87 274 287 290 285 274 272 291 282 287 284 242 271 244 193 221 240 254 265 256 233 229 228 227 227 228 227 223 221 221
195 196 197 198 198 200 203 205 206 204 199 197 201 205 205 208 213 219 215 213 216 210 206 203 197 191 184 189 201 193 190 191 187 184 183 184 184 180 179 181 182 186 191 190 185 185 188 194 196 185 157 151 144 127 152 140 125 107 103 236 296 281 274 273 343 292 237 241 221 176 267 250 200 220 236 248 250 237 229 228 226 225 224 225 226 225 225 224
191 192 193 192 193 197 201 202 203 201 198 197 198 202 204 205 211 219 215 217 214 204 201 199 192 187 185 189 195 190 190 189 187 185 183 184 182 178 177 178 176 174 180 187 183 177 176 186 194 180 153 150 138 123 120 104 124 129 113 194 255 247 245 69 57 270 237 201 176 186 259 260 227 218 232 238 238 228 224 228 230 227 224 225 226 226 227 227
186 187 189 188 190 194 200 201 200 201 202 201 199 200 201 202 210 216 216 220 213 200 196 192 186 182 183 189 189 188 189 187 188 188 183 184 183 179 177 178 175 172 173 176 172 164 164 176 180 157 135 144 140 129 114 92 114 133 178 209 211 221 248 345 331 268 286 224 168 192 255 270 267 265 243 232 224 220 221 228 232 232 228 226 227 227 228 229
179 181 185 186 187 191 197 200 199 200 202 201 196 196 199 203 207 215 221 223 219 198 187 181 180 178 177 186 184 185 186 186 188 187 184 186 185 181 179 177 174 173 174 170 162 158 164 170 159 136 128 142 151 142 123 144 155 134 215 214 186 205 223 315 327 73 346 310 181 213 250 299 276 239 239 222 217 218 222 227 231 233 233 229 228 228 229 229
175 177 181 181 183 188 193 197 198 197 198 196 192 194 202 206 208 219 227 228 243 205 187 182 179 177 177 172 174 181 184 184 185 182 182 186 188 185 179 173 170 171 170 164 162 161 165 161 145 139 140 156 169 154 151 195 193 135 226 227 204 207 196 215 171 62 13 286 220 236 249 268 268 261 263 200 210 217 221 231 234 236 236 234 231 229 231 230
172 173 177 178 179 183 189 194 195 194 195 194 192 195 203 209 214 223 225 229 247 207 189 185 176 173 178 173 176 183 184 182 181 181 180 184 189 187 181 173 168 167 159 154 161 161 158 148 142 147 154 174 179 177 186 184 171 165 198 217 209 200 221 226 210 7 352 296 260 255 254 264 268 268 262 241 224 223 224 235 239 240 239 238 237 233 233 235
169 170 173 175 177 178 185 192 193 195 195 193 192 193 199 206 212 223 224 227 240 208 188 176 170 172 194 180 180 182 183 181 178 179 180 180 186 186 182 176 168 161 152 147 167 164 147 127 147 174 175 185 187 190 188 151 165 186 197 217 218 197 206 222 235 305 341 302 271 260 260 264 264 266 262 242 233 236 236 244 243 241 240 239 241 239 237 239
165 166 169 171 176 177 183 189 192 196 195 196 193 182 186 190 196 223 221 225 235 232 290 188 175 180 177 171 172 175 177 178 177 177 180 180 180 177 172 169 162 159 159 155 167 168 158 158 187 191 181 180 180 186 187 166 183 189 191 218 223 220 209 175 229 239 338 293 271 259 267 267 262 267 267 245 228 238 237 242 243 239 240 240 241 242 240 241
163 164 166 168 173 177 182 185 189 192 195 199 195 176 177 178 179 209 203 219 236 230 264 254 192 204 163 166 171 172 166 169 177 177 180 180 175 169 163 162 157 166 177 145 137 156 175 194 202 188 170 168 178 183 177 166 179 180 186 207 207 227 227 198 222 201 158 257 265 269 278 273 265 268 270 252 217 237 236 233 239 238 240 243 243 243 243 243
161 162 167 169 172 177 180 182 186 189 193 199 194 181 186 191 196 207 196 207 239 229 252 263 227 237 169 167 174 171 159 154 168 171 174 174 172 169 162 164 165 169 163 128 122 155 191 210 200 178 164 165 174 169 159 154 166 182 181 203 222 208 220 229 210 169 171 223 265 285 286 278 275 272 273 264 241 244 241 236 241 241 242 245 246 245 244 246
162 165 170 171 172 176 180 182 184 186 192 198 194 185 188 200 208 211 195 195 246 237 243 252 243 198 163 165 170 168 159 152 159 165 171 170 171 172 165 166 169 157 159 155 160 173 194 211 188 165 159 160 157 157 158 144 155 188 176 197 227 175 192 234 190 169 210 228 277 290 288 282 278 269 269 264 248 245 244 243 246 244 245 248 250 250 247 247
168 169 172 172 172 175 178 182 181 185 193 196 197 192 175 189 200 194 173 165 321 258 234 238 244 195 168 167 170 168 164 164 164 167 172 171 168 168 168 169 164 158 172 175 174 179 166 157 159 157 158 160 153 161 164 144 163 211 200 207 212 177 205 237 160 273 261 230 233 274 280 272 261 253 258 256 238 236 239 240 245 243 245 248 248 250 248 246
175 176 175 174 175 175 176 180 181 186 194 197 199 202 183 170 183 182 161 90 340 257 233 231 235 206 180 171 172 169 162 166 170 169 171 172 167 160 164 171 165 169 180 178 178 187 155 143 154 160 165 163 156 166 173 164 172 205 225 226 218 196 209 217 120 317 266 234 171 213 267 262 248 243 243 239 228 231 225 221 233 239 241 243 243 246 248 247
180 183 182 178 177 178 176 179 185 186 194 202 201 205 195 157 169 179 164 51 274 211 190 212 213 198 189 175 168 165 159 164 174 170 168 172 170 159 154 164 161 175 176 174 184 194 153 159 162 163 165 165 160 169 178 175 181 204 197 207 218 208 207 200 169 206 249 260 82 192 257 270 290 260 239 229 239 241 219 212 227 231 234 237 240 245 247 247
183 186 187 185 180 181 179 177 186 188 193 205 205 203 192 156 160 171 161 359 242 157 152 199 192 186 191 176 165 165 156 145 157 170 169 169 168 160 156 160 146 171 164 155 184 183 151 168 169 165 163 166 174 177 179 180 190 203 169 181 202 204 207 203 186 215 256 310 291 228 238 280 283 269 232 223 251 253 235 222 226 228 231 234 239 244 246 246
182 185 188 188 183 181 181 178 185 188 190 206 208 200 194 174 164 164 162 243 193 115 148 197 193 183 185 175 170 166 144 146 148 174 173 167 166 161 164 168 153 157 161 162 186 164 148 168 171 163 161 176 189 179 170 177 187 169 152 176 195 194 201 197 181 220 302 319 264 205 150 258 268 252 149 195 243 250 244 231 224 227 232 234 237 243 246 247
179 183 184 187 184 177 178 180 180 184 188 197 199 196 199 183 161 154 182 233 156 87 140 180 190 186 179 175 176 159 145 150 137 165 172 171 169 166 155 161 150 145 158 164 160 141 150 175 170 163 169 186 181 160 166 182 190 116 128 136 147 150 146 146 181 183 121 262 254 193 162 231 271 256 200 201 235 243 248 242 224 227 236 238 238 241 245 247
175 177 178 183 182 176 177 175 166 172 186 186 183 189 190 175 153 153 210 189 123 110 149 169 181 182 174 174 176 155 150 146 126 146 162 155 156 150 112 138 141 134 130 58 88 110 84 151 166 166 172 154 132 131 162 177 145 122 124 115 111 110 96 122 206 127 211 250 247 167 166 209 273 262 218 216 219 221 237 246 237 233 239 242 240 240 243 245
165 169 175 181 181 177 178 172 158 148 165 177 176 174 172 164 165 207 186 139 78 144 159 170 175 179 176 171 163 158 151 133 142 146 141 118 139 134 117 126 117 106 115 89 87 68 87 134 163 153 133 121 112 113 129 143 138 131 138 134 119 113 137 159 155 188 232 243 239 171 177 201 242 256 220 215 194 202 229 237 236 231 234 240 241 241 242 244
158 167 172 177 180 179 179 174 164 153 153 165 166 161 160 172 234 221 164 102 136 167 170 174 183 192 180 172 166 162 149 137 154 152 150 152 152 152 153 161 150 129 149 151 138 136 136 142 127 124 151 144 134 127 102 136 155 153 152 145 129 123 158 203 190 205 238 228 160 216 179 211 241 253 244 235 210 219 238 241 238 230 229 237 240 241 241 242
148 160 165 173 177 178 179 172 171 174 164 157 157 153 156 223 222 198 188 157 129 154 154 165 182 190 177 172 172 164 152 152 161 153 152 158 158 163 164 167 163 152 155 157 146 146 140 45 146 148 175 177 163 152 152 168 179 175 160 155 156 144 165 214 201 217 254 220 184 141 118 249 262 263 246 249 243 231 234 241 246 246 243 242 241 242 242 240
130 141 154 169 172 174 178 169 170 181 175 159 156 156 184 217 205 165 185 200 98 118 113 156 174 184 178 174 171 164 151 159 161 148 144 153 160 166 148 163 177 150 114 144 152 160 149 147 187 172 162 180 182 163 146 135 148 179 173 160 171 162 182 212 199 212 229 139 168 160 164 247 259 39 262 265 268 249 242 246 253 258 255 250 249 250 250 246
111 139 152 163 169 171 176 170 162 170 171 164 160 180 193 200 200 169 170 155 130 141 128 156 165 175 183 179 179 175 165 164 160 147 148 159 164 170 158 175 188 165 138 155 168 170 161 129 168 157 145 169 172 153 142 138 155 196 138 149 212 184 171 182 187 213 168 81 190 188 231 258 286 319 292 269 265 253 249 252 258 261 257 254 255 253 252 251
32 169 169 167 171 170 172 172 161 159 168 165 162 231 209 208 220 199 159 147 153 150 138 155 173 173 174 184 199 188 303 148 159 152 164 167 166 177 170 173 180 171 163 155 136 170 173 127 132 128 151 172 167 157 161 160 155 161 178 189 189 71 73 142 157 72 82 253 226 191 246 281 305 292 272 246 242 229 232 243 248 253 254 255 258 254 248 248
289 223 210 198 177 169 169 171 164 161 164 159 178 216 219 253 203 195 226 144 143 153 150 161 185 178 166 168 210 183 134 139 162 153 160 168 168 175 171 170 179 179 170 147 117 178 153 113 74 120 156 171 144 146 168 178 126 136 188 176 126 33 341 236 230 150 188 245 249 202 242 268 269 272 252 224 239 237 229 232 235 248 251 251 254 253 250 251
299 274 236 216 183 168 165 167 165 161 157 152 210 214 199 204 184 174 294 176 138 156 169 174 170 147 176 171 187 183 158 152 171 159 153 169 177 174 172 173 184 186 173 144 131 153 133 111 81 258 162 153 102 140 169 233 238 154 166 152 145 232 208 187 219 218 207 239 259 223 239 253 231 233 232 204 228 240 246 243 241 256 251 245 250 253 257 262
27 341 279 214 178 166 162 164 162 157 151 160 205 213 194 185 176 171 226 240 159 171 200 209 174 108 185 174 161 183 173 164 169 162 164 181 179 177 180 172 173 183 178 148 149 153 135 122 148 233 169 143 156 178 181 191 207 353 145 159 173 275 202 187 192 207 218 233 254 247 233 247 220 213 225 226 227 239 246 244 241 251 251 255 264 265 267 270
97 97 340 250 172 163 161 161 159 156 161 187 195 206 194 185 176 176 197 223 200 190 208 216 168 135 173 175 165 186 182 169 170 170 176 177 150 171 183 172 159 168 160 111 143 148 121 115 138 140 163 167 181 203 196 185 174 165 173 177 186 179 178 250 204 204 232 228 244 255 250 250 197 179 216 222 228 233 238 244 237 247 265 277 281 276 276 279
148 139 293 234 165 159 158 158 157 160 182 198 198 217 207 170 163 172 192 210 228 307 290 221 194 170 168 167 180 193 181 167 174 178 174 172 158 171 184 172 155 156 149 133 155 160 123 121 134 145 177 187 188 289 213 192 186 182 181 183 189 183 167 196 205 193 205 232 231 255 270 258 168 160 215 217 226 228 226 249 256 261 279 280 271 271 287 295
183 163 175 172 161 159 158 158 167 175 191 196 196 207 198 171 166 164 178 201 215 339 356 270 214 193 195 183 177 182 175 169 181 183 181 184 186 175 171 161 150 152 153 131 134 123 80 105 124 144 168 177 110 15 11 254 204 200 210 203 196 193 189 204 218 178 174 224 194 339 283 263 155 154 208 216 222 213 203 221 253 268 276 278 279 283 289 288
193 188 165 166 169 166 162 163 183 183 207 198 195 209 206 190 171 155 160 186 193 151 319 257 199 186 220 202 175 179 176 175 183 180 174 182 181 151 162 155 148 155 158 126 128 141 122 111 112 124 135 92 50 47 31 15 217 211 227 217 198 206 205 200 304 173 179 207 190 217 264 255 156 159 202 224 233 233 230 235 252 269 282 289 288 293 293 286
204 214 199 187 180 173 170 176 177 187 209 190 189 215 217 219 195 166 160 177 180 158 184 241 206 194 211 188 184 189 177 171 185 174 128 162 164 172 164 156 154 163 170 150 161 174 160 140 134 133 139 146 138 172 201 206 209 210 211 198 204 221 205 116 9 238 216 212 196 209 254 252 174 147 190 209 231 244 244 248 258 267 284 303 309 316 316 308
206 217 208 191 182 179 186 199 181 186 197 185 187 200 198 222 214 187 174 178 190 181 171 236 243 208 190 182 191 192 179 174 185 173 136 116 71 184 164 160 164 167 149 139 154 159 154 154 154 145 152 176 182 186 192 179 182 195 175 183 204 210 196 189 208 214 223 215 193 203 242 244 109 118 198 193 223 252 241 235 254 261 278 314 336 338 338 337
199 200 191 185 185 188 199 206 197 196 191 184 190 193 190 207 214 192 185 185 198 195 195 242 254 224 191 185 183 185 189 354 121 156 148 138 121 242 168 165 168 165 142 139 145 141 119 152 179 174 173 186 183 152 117 120 142 186 194 195 201 200 200 204 210 216 219 210 201 220 241 256 163 162 200 214 222 251 265 228 233 238 285 346 1 2 11 7
210 200 176 173 189 201 209 206 206 210 193 186 186 181 193 203 194 186 193 191 183 183 207 236 212 217 206 181 175 178 168 75 112 136 126 137 112 87 165 167 168 162 153 148 150 141 94 174 194 191 181 172 127 132 137 146 168 192 193 194 195 193 199 205 217 225 216 179 235 232 230 250 248 196 179 232 238 221 196 219 220 225 283 315 330 340 355 359
217 231 199 188 184 201 205 199 202 205 196 192 192 180 192 199 188 177 187 176 164 170 185 225 203 209 208 186 175 166 154 131 137 141 117 128 122 120 156 166 168 161 154 156 164 157 147 190 193 181 149 42 73 139 158 166 175 181 181 186 187 187 195 203 219 229 213 199 242 235 197 235 247 219 198 218 231 220 185 186 210 257 274 282 294 298 301 315
220 256 226 209 207 204 202 197 195 199 197 192 196 192 193 199 194 181 165 144 154 175 183 217 209 204 206 200 185 167 164 161 160 164 160 151 148 147 151 156 184 172 163 162 173 178 192 181 169 155 125 42 63 150 163 168 166 171 185 190 189 192 199 205 217 225 215 224 252 259 235 247 252 237 220 220 227 240 235 219 240 258 262 268 280 284 286 296
218 233 231 224 231 231 223 208 196 199 199 193 198 199 193 198 196 183 166 164 160 169 189 211 216 200 199 202 198 195 192 182 175 176 168 158 159 166 167 168 176 176 173 170 168 189 220 159 144 143 127 52 55 152 162 170 173 182 193 197 198 201 206 212 219 220 210 234 250 252 255 262 257 220 205 213 223 241 258 258 258 262 263 267 275 280 284 289
232 233 237 257 253 222 226 225 204 202 200 196 202 197 189 198 195 180 174 184 183 183 191 203 212 200 193 200 206 209 201 187 175 172 167 164 163 163 168 175 169 166 170 172 163 153 123 134 142 147 143 119 127 150 158 159 160 192 212 209 204 204 208 214 218 210 202 221 237 239 245 256 246 158 176 195 206 229 246 252 258 262 264 267 272 274 278 280
243 241 240 249 258 224 217 223 212 208 199 192 199 196 191 198 191 179 182 196 199 200 192 185 197 206 198 202 208 208 197 175 157 163 165 156 138 109 101 148 165 166 160 153 148 137 128 134 150 155 148 141 157 151 143 127 130 229 231 209 197 200 207 213 221 218 212 218 228 226 232 240 169 118 181 192 191 218 232 237 247 254 257 262 268 272 275 276